CZ-6A DEB, 56649

Orbit data source: Space-Track

CZ-6A DEB, 56649 is space debris in SSO originally from a launch on Fri, 11 Nov 2022 UTC launched from the Taiyaun Space Center, China (TSC). Debris objects in space refer to the collection of defunct objects orbiting the Earth. Examples of debris include non-operational satellites, rocket bodies, and fragments generated from explosions, collisions, or faulty payload assembly.

Loading next visibility...
Identifier
56649, 2022-151AFZ
Orbit
SSO
Country
Flag of CNCN / PRC
Related business
Manufacturer
SAST
Mission
Spacecraft
Bus & Motor
Unknown
Mass
Unknown
Launch date (UTC)
2022-11-11 (4 years ago)
Launch vehicle
Unknown
Launch site
Taiyaun Space Center, China (TSC)
Object type
Payload
Rocket body
Debris
Shape & HBR
Unknown shape, 0.1 m
Radar Cross Section
Small (<0.1 m²)

Expand to show TLE details & history
Last TLE update: 3 days ago

TLE from 3 days ago
0 CZ-6A DEB
1 56649U 22151AFZ 26262.24720872  .00001174  00000-0  59255-3 0  9993
2 56649  98.8336 271.3339 0040519  51.6124 308.8679 14.17790877184189
Epoch: 2026-09-19T05:55Z
TLE epoch observation values (Epoch: 2026-09-19T05:55:58.833Z)
Latitude
-0.00005°
Longitude
-175.81971°
Altitude
817.474 km
Speed
7.454 km/s
True Right ascension
18h 05m 20s
True Declination
0° 00' 00"
Sunlit
Object was in daylight at epoch
Visualization orbit readout
Latitude
Unknown
Longitude
Unknown
Altitude
Unknown
Speed
Unknown
Apparent Right ascension
Unknown
Apparent Declination
Unknown
Sunlit
N/A
Visualization observer readout
Local Sidereal Time
13:49:30
Azimuth
Unknown
Elevation
Unknown
Doppler factor
Unknown
Orbital elements
Apogee altitude
859.208 km
Perigee altitude
800.794 km
Semi-major axis
7,208.138 km
Eccentricity
0.00405
Inclination
98.8336°
RAAN
271.3339°
Arg. of periapsis
51.6124°
True anomaly
308.50524°
Mean anomaly
308.8679°
Eccentric anomaly
308.68668°
Mean motion
3.54657 °/min
Orbital period
101.51 mins
BSTAR
0.00059255
Loading maneuver chart data...
Computing Atmospheric mass density...
Loading historical data...
Loading historical data...
Loading historical data...
Loading historical data...
Loading historical data...
Loading historical data...
Loading historical data...

Documentation

Showing up to 5 results
|